TimeEST,TemperatureF,Dew PointF,Humidity,Sea Level PressureIn,VisibilityMPH,Wind Direction,Wind SpeedMPH,Gust SpeedMPH,PrecipitationIn,Events,Conditions,WindDirDegrees,DateUTC
12:12 AM,66.2,66.2,100,30.04,8.0,Calm,Calm,-,N/A,,Partly Cloudy,0,2012-12-10 05:12:00
12:53 AM,64.9,64.0,97,30.03,10.0,Calm,Calm,-,N/A,,Scattered Clouds,0,2012-12-10 05:53:00
1:09 AM,64.4,62.6,94,30.03,6.0,Calm,Calm,-,N/A,Fog,Patches of Fog,0,2012-12-10 06:09:00
1:29 AM,64.4,64.4,100,30.02,1.2,Calm,Calm,-,N/A,Fog,Patches of Fog,0,2012-12-10 06:29:00
1:47 AM,64.4,64.4,100,30.02,1.2,Calm,Calm,-,N/A,Fog,Patches of Fog,0,2012-12-10 06:47:00
1:53 AM,64.9,64.9,100,30.01,1.0,Calm,Calm,-,N/A,Fog,Patches of Fog,0,2012-12-10 06:53:00
2:28 AM,66.2,66.2,100,30.00,0.2,Calm,Calm,-,N/A,Fog,Fog,0,2012-12-10 07:28:00
2:53 AM,66.9,66.9,100,29.99,0.1,Calm,Calm,-,N/A,Fog,Fog,0,2012-12-10 07:53:00
3:46 AM,68.0,66.2,94,29.99,0.1,Calm,Calm,-,N/A,Fog,Fog,0,2012-12-10 08:46:00
3:53 AM,68.0,66.9,96,29.99,0.1,Calm,Calm,-,N/A,Fog,Fog,0,2012-12-10 08:53:00
4:02 AM,68.0,66.2,94,29.99,0.1,SE,3.5,-,N/A,Fog,Fog,130,2012-12-10 09:02:00
4:13 AM,68.0,66.2,94,29.99,0.1,Calm,Calm,-,N/A,Fog,Fog,0,2012-12-10 09:13:00
4:53 AM,68.0,68.0,100,29.98,0.1,Calm,Calm,-,N/A,Fog,Fog,0,2012-12-10 09:53:00
5:53 AM,68.0,68.0,100,29.98,0.1,Calm,Calm,-,N/A,Fog,Fog,0,2012-12-10 10:53:00
6:53 AM,68.0,68.0,100,29.98,0.1,SSE,4.6,-,N/A,Fog,Fog,150,2012-12-10 11:53:00
6:57 AM,68.0,68.0,100,29.99,0.5,South,4.6,-,N/A,Fog,Fog,180,2012-12-10 11:57:00
7:11 AM,69.8,68.0,94,29.99,0.2,South,4.6,-,N/A,Fog,Fog,180,2012-12-10 12:11:00
7:53 AM,69.1,68.0,96,29.99,0.1,South,4.6,-,N/A,Fog,Fog,190,2012-12-10 12:53:00
8:50 AM,69.8,68.0,94,30.00,0.2,South,5.8,-,N/A,Fog,Fog,180,2012-12-10 13:50:00
8:53 AM,69.1,69.1,100,30.00,0.2,South,5.8,-,N/A,,Mist,180,2012-12-10 13:53:00
9:01 AM,69.8,69.8,100,30.00,0.2,South,5.8,-,N/A,,Overcast,180,2012-12-10 14:01:00
9:53 AM,70.0,69.1,97,30.00,0.2,SSE,9.2,-,N/A,,Mostly Cloudy,160,2012-12-10 14:53:00
10:25 AM,73.4,69.8,88,30.00,5.0,South,6.9,-,N/A,,Mostly Cloudy,170,2012-12-10 15:25:00
10:42 AM,75.2,69.8,83,29.99,8.0,South,10.4,-,N/A,,Mostly Cloudy,180,2012-12-10 15:42:00
10:49 AM,75.2,69.8,83,29.99,10.0,South,8.1,-,N/A,,Mostly Cloudy,180,2012-12-10 15:49:00
10:53 AM,75.0,70.0,84,29.99,10.0,SSE,9.2,-,N/A,,Mostly Cloudy,160,2012-12-10 15:53:00
11:03 AM,75.2,69.8,83,29.99,10.0,SSE,5.8,-,N/A,,Mostly Cloudy,160,2012-12-10 16:03:00
11:49 AM,80.6,69.8,70,29.97,10.0,South,12.7,-,N/A,,Mostly Cloudy,170,2012-12-10 16:49:00
11:53 AM,79.0,70.0,74,29.96,10.0,South,13.8,-,N/A,,Mostly Cloudy,170,2012-12-10 16:53:00
12:53 PM,80.1,70.0,71,29.93,10.0,South,11.5,-,N/A,,Overcast,180,2012-12-10 17:53:00
1:15 PM,80.6,71.6,74,29.93,10.0,South,8.1,-,N/A,,Overcast,180,2012-12-10 18:15:00
1:53 PM,81.0,71.1,72,29.91,10.0,SSW,11.5,-,N/A,,Overcast,200,2012-12-10 18:53:00
2:53 PM,81.0,71.1,72,29.87,10.0,SSE,8.1,-,N/A,,Overcast,160,2012-12-10 19:53:00
3:53 PM,81.0,71.1,72,29.86,10.0,SSE,11.5,-,N/A,,Overcast,160,2012-12-10 20:53:00
4:53 PM,78.1,72.0,81,29.85,10.0,South,9.2,-,0.01,,Overcast,170,2012-12-10 21:53:00
5:53 PM,79.0,70.0,74,29.86,10.0,South,9.2,-,N/A,,Overcast,190,2012-12-10 22:53:00
6:53 PM,78.1,70.0,76,29.89,10.0,South,6.9,-,N/A,,Overcast,190,2012-12-10 23:53:00
7:48 PM,75.2,71.6,89,29.90,10.0,South,11.5,-,0.00,Rain-Thunderstorm,Light Thunderstorms and Rain,180,2012-12-11 00:48:00
7:53 PM,75.9,72.0,87,29.90,10.0,South,11.5,-,0.00,Rain-Thunderstorm,Light Thunderstorms and Rain,190,2012-12-11 00:53:00
8:09 PM,75.2,71.6,89,29.91,10.0,South,9.2,-,0.01,Rain,Light Rain,180,2012-12-11 01:09:00
8:53 PM,75.0,73.0,94,29.93,10.0,SSW,9.2,-,0.01,,Overcast,200,2012-12-11 01:53:00
9:53 PM,73.9,73.0,97,29.90,10.0,SSW,8.1,-,0.02,Rain,Light Rain,200,2012-12-11 02:53:00
10:34 PM,75.2,71.6,89,29.89,10.0,SSW,10.4,-,0.03,,Overcast,200,2012-12-11 03:34:00
10:53 PM,73.9,71.1,91,29.90,10.0,SW,11.5,21.9,0.03,,Overcast,230,2012-12-11 03:53:00
11:53 PM,71.1,68.0,90,29.92,10.0,WSW,10.4,-,N/A,,Overcast,250,2012-12-11 04:53:00